N1LID Weather Reports


time (UTC)temp
F
wind
direction
speed
knots
gust
knots
rain 1hr
in
rain 24hr
in
rain mn
in
humidity
%
barometer
mb
20260505035007 64 227 1.7 7.8 0.00 0.00 0.00 64 1011.8
20260505034522 64 234 2.6 4.3 0.00 0.00 0.00 64 1011.8
20260505034006 64 246 0.9 4.3 0.00 0.00 0.00 65 1011.8
20260505033506 64 245 0.0 5.2 0.00 0.00 0.00 65 1011.9
20260505033021 63 239 2.6 5.2 0.00 0.00 0.00 66 1011.9
20260505032506 63 249 0.0 0.0 0.00 0.00 0.00 66 1011.9
20260505032007 63 246 0.0 0.0 0.00 0.00 0.00 66 1011.9
20260505031539 63 246 0.0 0.0 0.00 0.00 0.00 66 1011.9
20260505031011 63 233 0.0 0.0 0.00 0.00 0.00 65 1011.8
20260505030508 63 246 0.0 0.0 0.00 0.00 0.00 65 1011.7
20260505030026 63 247 0.0 0.0 0.00 0.00 0.00 65 1011.8
20260505025509 63 248 0.0 0.0 0.00 0.00 0.00 65 1011.7
20260505025009 63 248 0.0 0.0 0.00 0.00 0.00 65 1011.8
20260505024525 63 248 0.0 0.0 0.00 0.00 0.00 65 1011.8
20260505024003 63 248 0.0 0.0 0.00 0.00 0.00 65 1011.8
20260505023504 63 254 0.0 0.0 0.00 0.00 0.00 65 1011.7
20260505023020 63 257 0.0 0.0 0.00 0.00 0.00 66 1011.7
20260505022503 63 257 0.0 0.0 0.00 0.00 0.00 66 1011.8
20260505022003 63 257 0.0 0.0 0.00 0.00 0.00 66 1011.8
20260505021504 63 257 0.0 0.0 0.00 0.00 0.00 66 1011.6
20260505021006 63 256 0.0 0.0 0.00 0.00 0.00 66 1011.7
20260505020503 63 242 0.0 0.0 0.00 0.00 0.00 66 1011.8
20260505020022 63 242 0.0 0.0 0.00 0.00 0.00 66 1011.7
20260505015503 63 242 0.0 0.0 0.00 0.00 0.00 66 1011.7
20260505015003 64 242 0.0 0.0 0.00 0.00 0.00 65 1011.6
20260505014510 64 242 0.0 0.0 0.00 0.00 0.00 65 1011.6
20260505014008 64 242 0.0 0.0 0.00 0.00 0.00 64 1011.7
20260505013504 65 242 0.0 0.0 0.00 0.00 0.00 63 1011.7
20260505013021 65 242 0.0 0.0 0.00 0.00 0.00 62 1011.7
20260505012502 65 242 0.0 0.0 0.00 0.00 0.00 61 1011.7
20260505012004 65 242 0.0 0.0 0.00 0.00 0.00 61 1011.7
20260505011509 65 242 0.0 0.0 0.00 0.00 0.00 60 1011.7
20260505011004 65 242 0.0 0.0 0.00 0.00 0.00 60 1011.6
20260505010508 66 242 0.0 0.0 0.00 0.00 0.00 60 1011.7
20260505010004 66 242 0.0 0.0 0.00 0.00 0.00 59 1011.4
20260505005503 66 244 0.0 0.0 0.00 0.00 0.00 58 1011.3
20260505005006 66 245 0.0 0.0 0.00 0.00 0.00 57 1011.3
20260505004517 66 242 0.0 0.0 0.00 0.00 0.00 57 1011.3
20260505004003 66 244 0.0 0.0 0.00 0.00 0.00 56 1011.3
20260505003502 66 244 0.0 0.0 0.00 0.00 0.00 55 1011.4
20260505003012 67 246 0.0 0.0 0.00 0.00 0.00 54 1011.4
20260505002505 67 246 0.0 0.0 0.00 0.00 0.00 53 1011.4
20260505002007 68 246 0.0 0.0 0.00 0.00 0.00 51 1011.3
20260505001509 68 246 0.0 0.0 0.00 0.00 0.00 51 1011.4
20260505001007 69 246 0.0 0.0 0.00 0.00 0.00 50 1011.4
20260505000503 69 246 0.0 0.0 0.00 0.00 0.00 48 1011.4
20260505000026 70 246 0.0 0.0 0.00 0.00 0.00 48 1011.3
20260504235506 70 246 0.0 0.0 0.00 0.00 0.00 47 1011.2
20260504235006 71 246 0.0 0.0 0.00 0.00 0.00 46 1011.1
20260504234507 71 246 0.0 2.6 0.00 0.00 0.00 44 1011.0
20260504234003 72 245 0.0 2.6 0.00 0.00 0.00 43 1011.0
20260504233504 72 238 0.0 0.0 0.00 0.00 0.00 43 1011.0
20260504233010 72 235 0.0 0.0 0.00 0.00 0.00 42 1011.0
20260504232505 73 235 0.0 0.9 0.00 0.00 0.00 41 1011.0
20260504232003 73 235 0.0 5.2 0.00 0.00 0.00 40 1010.9
20260504231508 73 235 0.0 6.1 0.00 0.00 0.00 40 1010.9
20260504231004 73 254 0.9 7.0 0.00 0.00 0.00 40 1010.8
20260504230504 73 261 1.7 7.0 0.00 0.00 0.00 39 1010.8
20260504230014 74 221 0.0 7.0 0.00 0.00 0.00 39 1010.9
20260504225508 73 242 0.0 8.7 0.00 0.00 0.00 39 1010.9
20260504225012 73 228 1.7 8.7 0.00 0.00 0.00 38 1010.9
20260504224523 74 243 2.6 9.6 0.00 0.00 0.00 38 1010.9
20260504224011 74 234 1.7 9.6 0.00 0.00 0.00 38 1011.0
20260504223508 74 258 0.9 8.7 0.00 0.00 0.00 38 1011.0
20260504223008 74 243 2.6 8.7 0.00 0.00 0.00 37 1011.0
20260504222504 74 217 3.5 11.3 0.00 0.00 0.00 37 1011.0
20260504222004 74 239 5.2 11.3 0.00 0.00 0.00 37 1011.1
20260504221514 74 360 3.5 11.3 0.00 0.00 0.00 37 1011.1
20260504221008 73 179 4.3 11.3 0.00 0.00 0.00 37 1011.1
20260504220507 73 238 2.6 11.3 0.00 0.00 0.00 38 1011.1
20260504220018 73 240 1.7 8.7 0.00 0.00 0.00 38 1011.1
20260504215504 73 248 2.6 7.8 0.00 0.00 0.00 38 1011.1
20260504215008 74 246 1.7 12.2 0.00 0.00 0.00 37 1011.1
20260504214522 74 242 6.1 12.2 0.00 0.00 0.00 37 1011.1
20260504214009 73 360 5.2 8.7 0.00 0.00 0.00 39 1011.1
20260504213511 73 277 2.6 8.7 0.00 0.00 0.00 40 1011.1
20260504213026 73 248 4.3 8.7 0.00 0.00 0.00 41 1011.1
20260504212506 73 236 1.7 7.8 0.00 0.00 0.00 41 1011.1
20260504212002 73 251 0.0 7.0 0.00 0.00 0.00 41 1011.1
20260504211511 73 242 0.9 7.0 0.00 0.00 0.00 40 1011.2
20260504211004 73 242 0.0 8.7 0.00 0.00 0.00 39 1011.1
20260504210504 73 244 1.7 8.7 0.00 0.00 0.00 38 1011.1
20260504210021 74 236 2.6 5.2 0.00 0.00 0.00 38 1011.3
20260504205507 74 252 1.7 9.6 0.00 0.00 0.00 37 1011.1
20260504205007 74 240 1.7 9.6 0.00 0.00 0.00 35 1011.0
20260504204520 74 198 1.7 7.8 0.00 0.00 0.00 36 1011.0
20260504204008 74 248 3.5 7.8 0.00 0.00 0.00 35 1010.9
20260504203509 74 252 2.6 7.8 0.00 0.00 0.00 35 1010.8
20260504203007 74 234 1.7 7.0 0.00 0.00 0.00 35 1011.0
20260504202506 74 252 3.5 10.4 0.00 0.00 0.00 34 1011.1
20260504202003 74 240 0.9 10.4 0.00 0.00 0.00 35 1011.2
20260504201505 74 258 0.9 5.2 0.00 0.00 0.00 35 1011.2
20260504201002 74 90 0.0 7.0 0.00 0.00 0.00 36 1011.3
20260504200502 74 303 0.0 7.8 0.00 0.00 0.00 36 1011.4
20260504200006 74 225 1.7 7.8 0.00 0.00 0.00 36 1011.5
20260504195503 74 128 0.0 7.0 0.00 0.00 0.00 37 1011.5
20260504195003 74 232 1.7 8.7 0.00 0.00 0.00 38 1011.5
20260504194504 74 231 0.0 8.7 0.00 0.00 0.00 38 1011.5
20260504194002 74 248 0.0 10.4 0.00 0.00 0.00 36 1011.7
20260504193502 74 210 0.9 10.4 0.00 0.00 0.00 37 1011.7
20260504193004 75 212 3.5 9.6 0.00 0.00 0.00 37 1011.8
20260504192502 75 229 4.3 7.8 0.00 0.00 0.00 36 1011.9
20260504192003 75 151 0.0 11.3 0.00 0.00 0.00 37 1012.0
20260504191506 75 100 0.0 11.3 0.00 0.00 0.00 37 1012.0
20260504191003 75 259 4.3 11.3 0.00 0.00 0.00 36 1012.1
20260504190506 76 360 5.2 10.4 0.00 0.00 0.00 35 1012.1
20260504190004 76 182 0.9 13.0 0.00 0.00 0.00 35 1012.0
20260504185504 77 189 2.6 13.0 0.00 0.00 0.00 34 1012.2
20260504185003 77 243 2.6 8.7 0.00 0.00 0.00 34 1012.3
20260504184504 77 244 2.6 8.7 0.00 0.00 0.00 35 1012.4
20260504184003 77 233 3.5 8.7 0.00 0.00 0.00 34 1012.4
20260504183504 77 242 2.6 8.7 0.00 0.00 0.00 34 1012.6
20260504183006 77 251 1.7 8.7 0.00 0.00 0.00 34 1012.8
20260504182502 77 257 2.6 7.8 0.00 0.00 0.00 35 1012.8
20260504182003 76 216 0.0 11.3 0.00 0.00 0.00 36 1012.8
20260504181504 76 244 0.0 11.3 0.00 0.00 0.00 35 1012.8
20260504181003 76 254 0.0 7.8 0.00 0.00 0.00 34 1012.9
20260504180503 75 240 0.0 10.4 0.00 0.00 0.00 36 1013.0
20260504180008 75 217 2.6 10.4 0.00 0.00 0.00 35 1012.9
20260504175502 75 227 0.9 8.7 0.00 0.00 0.00 36 1013.0
20260504175003 75 321 0.0 7.8 0.00 0.00 0.00 35 1013.0
20260504174504 75 181 0.0 9.6 0.00 0.00 0.00 36 1013.0
20260504174004 75 248 1.7 9.6 0.00 0.00 0.00 36 1013.1
20260504173504 75 236 5.2 9.6 0.00 0.00 0.00 36 1013.2
20260504173006 74 217 0.0 6.1 0.00 0.00 0.00 38 1013.2
20260504172503 74 243 0.0 6.1 0.00 0.00 0.00 37 1013.3
20260504172004 74 211 0.9 5.2 0.00 0.00 0.00 38 1013.4
20260504171508 74 225 0.0 5.2 0.00 0.00 0.00 38 1013.4
20260504171003 73 214 0.0 7.8 0.00 0.00 0.00 38 1013.4
20260504170503 73 234 0.0 8.7 0.00 0.00 0.00 36 1013.5
20260504151003 68 234 1.7 7.0 0.00 0.00 0.00 44 1014.5
20260504150504 67 221 0.9 5.2 0.00 0.00 0.00 44 1014.6
20260504141004 61 228 0.0 4.3 0.00 0.00 0.00 53 1014.6
20260504140504 61 228 0.0 7.8 0.00 0.00 0.00 55 1014.6
20260504130503 58 215 0.0 8.7 0.00 0.00 0.00 62 1015.3
20260504110503 53 235 2.6 8.7 0.00 0.00 0.00 67 1015.8
20260504100503 53 250 0.9 8.7 0.00 0.00 0.00 69 1015.8
20260504082006 53 257 2.6 7.0 0.00 0.00 0.00 71 1015.9
20260504081516 53 234 0.0 6.1 0.00 0.00 0.00 71 1016.0
20260504081008 53 244 2.6 6.1 0.00 0.00 0.00 71 1015.9
20260504080507 53 246 1.7 7.0 0.00 0.00 0.00 71 1015.9
20260504050505 46 239 0.0 0.0 0.00 0.00 0.00 81 1016.2
20260504050015 46 239 0.0 0.0 0.00 0.00 0.00 81 1016.3
20260504045504 46 233 0.0 0.0 0.00 0.00 0.00 81 1016.3
20260504045003 45 228 0.0 0.0 0.00 0.00 0.00 80 1016.4
20260504044507 45 228 0.0 0.0 0.00 0.00 0.00 80 1016.3
20260504044003 45 228 0.0 0.0 0.00 0.00 0.00 80 1016.3
20260504043505 45 228 0.0 0.0 0.00 0.00 0.00 79 1016.4
20260504043019 45 228 0.0 0.0 0.00 0.00 0.00 79 1016.4
20260504042507 45 228 0.0 0.0 0.00 0.00 0.00 79 1016.3
20260504042008 45 228 0.0 0.0 0.00 0.00 0.00 79 1016.2
20260504041523 45 228 0.0 0.0 0.00 0.00 0.00 79 1016.2
20260504041007 45 228 0.0 0.0 0.00 0.00 0.00 78 1016.3
20260504040507 45 228 0.0 0.0 0.00 0.00 0.00 78 1016.3
20260504040017 45 228 0.0 0.0 0.00 0.00 0.00 78 1016.2
20260504035505 45 228 0.0 0.0 0.00 0.00 0.00 77 1016.3